When you browse on this site, cookies collect data to enhance your experience and personalize the content and advertising you see.
Visit our Privacy Policy to learn more. By continuing to use the site, you agree to this use of cookies and data.
  • In Romania
  • List of Countries
  • For 7 days
  • Water Temperature
  • Weather Map
  • Weather Widgets
  • user-avatar
    Login

    Hourly Weather Santiago

    Today, 3 June, Wednesday

    Time Temperature Precipitation Wind Pressure Humidity
    00:00 +26°C° 0 mm 1 mps 749 mmHg 94%
    01:00 +26°C° 0 mm 1 mps 749 mmHg 94%
    02:00 +26°C° 0 mm 1 mps 749 mmHg 94%
    03:00 +25°C° 0 mm 1 mps 748 mmHg 95%
    04:00 +25°C° 0 mm 1 mps 748 mmHg 95%
    05:00 +26°C° 0 mm 1 mps 748 mmHg 94%
    06:00 +24°C° 0 mm 0 mps 749 mmHg 93%
    07:00 +24°C° 0 mm 0 mps 749 mmHg 91%
    08:00 +27°C° 0 mm 1 mps 749 mmHg 86%
    09:00 +28°C° 0 mm 1 mps 749 mmHg 81%
    10:00 +29°C° 0 mm 1 mps 750 mmHg 76%
    11:00 +30°C° 0.3 mm 1 mps 749 mmHg 73%
    12:00 +31°C° 0.3 mm 1 mps 749 mmHg 69%
    13:00 +32°C° 0.3 mm 1 mps 749 mmHg 66%
    14:00 +32°C° 0.9 mm 2 mps 748 mmHg 68%
    15:00 +31°C° 0.9 mm 2 mps 747 mmHg 70%
    16:00 +31°C° 0.9 mm 3 mps 746 mmHg 73%
    17:00 +30°C° 1.5 mm 3 mps 747 mmHg 78%
    18:00 +29°C° 1.5 mm 2 mps 747 mmHg 83%
    19:00 +28°C° 1.5 mm 2 mps 747 mmHg 89%
    20:00 +27°C° 0.1 mm 2 mps 748 mmHg 89%
    21:00 +27°C° 0.1 mm 1 mps 748 mmHg 89%
    22:00 +27°C° 0.1 mm 1 mps 749 mmHg 90%
    23:00 +27°C° 0.1 mm 1 mps 749 mmHg 90%

    Tomorrow, 4 June, Thursday

    Time Temperature Precipitation Wind Pressure Humidity
    00:00 +27°C° 0.1 mm 1 mps 748 mmHg 90%
    01:00 +27°C° 0.1 mm 1 mps 748 mmHg 91%
    02:00 +27°C° 0 mm 1 mps 748 mmHg 91%
    03:00 +27°C° 0 mm 1 mps 747 mmHg 92%
    04:00 +26°C° 0 mm 1 mps 747 mmHg 92%
    05:00 +27°C° 0 mm 1 mps 747 mmHg 91%
    06:00 +25°C° 0 mm 0 mps 747 mmHg 90%
    07:00 +25°C° 0 mm 0 mps 748 mmHg 89%
    08:00 +28°C° 0.3 mm 1 mps 748 mmHg 84%
    09:00 +29°C° 0.3 mm 1 mps 749 mmHg 79%
    10:00 +31°C° 0.3 mm 2 mps 749 mmHg 73%
    11:00 +31°C° 1.9 mm 2 mps 749 mmHg 73%
    12:00 +31°C° 1.9 mm 3 mps 748 mmHg 74%
    13:00 +31°C° 1.9 mm 3 mps 748 mmHg 74%
    14:00 +30°C° 3.4 mm 3 mps 748 mmHg 78%
    15:00 +29°C° 3.4 mm 4 mps 747 mmHg 82%
    16:00 +28°C° 3.4 mm 4 mps 747 mmHg 86%
    17:00 +28°C° 1.3 mm 4 mps 747 mmHg 88%
    18:00 +27°C° 1.3 mm 3 mps 747 mmHg 91%
    19:00 +26°C° 1.3 mm 3 mps 748 mmHg 93%
    20:00 +26°C° 0.1 mm 3 mps 748 mmHg 92%
    21:00 +26°C° 0.1 mm 3 mps 748 mmHg 91%
    22:00 +26°C° 0.1 mm 3 mps 749 mmHg 90%
    23:00 +26°C° 0 mm 3 mps 749 mmHg 91%

    Day after tomorrow, 5 June, Friday

    Time Temperature Precipitation Wind Pressure Humidity
    00:00 +25°C° 0 mm 2 mps 748 mmHg 91%
    01:00 +25°C° 0 mm 2 mps 748 mmHg 92%
    02:00 +25°C° 0 mm 2 mps 748 mmHg 92%
    03:00 +25°C° 0 mm 2 mps 748 mmHg 92%
    04:00 +25°C° 0 mm 1 mps 748 mmHg 92%
    05:00 +25°C° 0 mm 1 mps 748 mmHg 92%
    06:00 +25°C° 0 mm 1 mps 748 mmHg 91%
    07:00 +26°C° 0 mm 1 mps 749 mmHg 90%
    08:00 +27°C° 0 mm 1 mps 749 mmHg 85%
    09:00 +28°C° 0 mm 2 mps 749 mmHg 81%
    10:00 +29°C° 0 mm 2 mps 750 mmHg 76%
    11:00 +30°C° 0.1 mm 2 mps 749 mmHg 73%
    12:00 +31°C° 0.1 mm 3 mps 749 mmHg 69%
    13:00 +33°C° 0.1 mm 3 mps 749 mmHg 66%
    14:00 +33°C° 1.4 mm 3 mps 748 mmHg 69%
    15:00 +31°C° 1.4 mm 3 mps 748 mmHg 73%
    16:00 +32°C° 1.4 mm 4 mps 747 mmHg 76%
    17:00 +30°C° 0.4 mm 3 mps 748 mmHg 80%
    18:00 +29°C° 0.4 mm 3 mps 748 mmHg 84%
    19:00 +28°C° 0.4 mm 2 mps 748 mmHg 87%
    20:00 +27°C° 0 mm 2 mps 749 mmHg 89%
    21:00 +27°C° 0 mm 2 mps 749 mmHg 90%
    22:00 +27°C° 0 mm 2 mps 750 mmHg 91%
    23:00 +27°C° 0 mm 2 mps 749 mmHg 92%

    6 June, Saturday

    Time Temperature Precipitation Wind Pressure Humidity
    00:00 +26°C° 0 mm 2 mps 749 mmHg 92%
    01:00 +26°C° 0 mm 1 mps 749 mmHg 93%
    02:00 +26°C° 0.2 mm 1 mps 749 mmHg 93%
    03:00 +26°C° 0.2 mm 1 mps 748 mmHg 94%
    04:00 +26°C° 0.2 mm 1 mps 748 mmHg 94%
    05:00 +26°C° 0.3 mm 1 mps 748 mmHg 93%
    06:00 +26°C° 0.3 mm 1 mps 749 mmHg 92%
    07:00 +27°C° 0.3 mm 1 mps 749 mmHg 91%
    08:00 +28°C° 0.6 mm 1 mps 749 mmHg 87%
    09:00 +29°C° 0.6 mm 1 mps 750 mmHg 82%
    10:00 +30°C° 0.6 mm 1 mps 750 mmHg 77%
    11:00 +30°C° 2.9 mm 2 mps 750 mmHg 78%
    12:00 +30°C° 2.9 mm 3 mps 749 mmHg 79%
    13:00 +30°C° 2.9 mm 3 mps 749 mmHg 80%
    14:00 +29°C° 1.8 mm 4 mps 749 mmHg 82%
    15:00 +29°C° 1.8 mm 4 mps 748 mmHg 85%
    16:00 +28°C° 1.8 mm 4 mps 748 mmHg 87%
    17:00 +28°C° 0.8 mm 4 mps 748 mmHg 89%
    18:00 +27°C° 0.8 mm 3 mps 748 mmHg 90%
    19:00 +26°C° 0.8 mm 3 mps 749 mmHg 92%
    20:00 +26°C° 0 mm 3 mps 749 mmHg 92%
    21:00 +26°C° 0 mm 2 mps 750 mmHg 93%
    22:00 +26°C° 0 mm 2 mps 750 mmHg 93%
    23:00 +26°C° 0 mm 2 mps 750 mmHg 94%

    7 June, Sunday

    Time Temperature Precipitation Wind Pressure Humidity
    00:00 +26°C° 0 mm 2 mps 749 mmHg 94%
    01:00 +26°C° 0 mm 2 mps 749 mmHg 95%
    02:00 +26°C° 0 mm 2 mps 749 mmHg 95%
    03:00 +26°C° 0 mm 2 mps 749 mmHg 95%
    04:00 +25°C° 0 mm 2 mps 748 mmHg 95%
    05:00 +26°C° 0 mm 1 mps 749 mmHg 95%
    06:00 +26°C° 0 mm 1 mps 749 mmHg 94%
    07:00 +26°C° 0 mm 1 mps 749 mmHg 94%
    08:00 +27°C° 0.3 mm 1 mps 750 mmHg 90%
    09:00 +28°C° 0.3 mm 2 mps 750 mmHg 85%
    10:00 +29°C° 0.3 mm 2 mps 750 mmHg 81%
    11:00 +30°C° 2.4 mm 2 mps 750 mmHg 79%
    12:00 +30°C° 2.4 mm 3 mps 750 mmHg 77%
    13:00 +31°C° 2.4 mm 3 mps 749 mmHg 75%
    14:00 +30°C° 2.9 mm 4 mps 749 mmHg 79%
    15:00 +29°C° 2.9 mm 4 mps 748 mmHg 82%
    16:00 +28°C° 2.9 mm 4 mps 748 mmHg 85%
    17:00 +28°C° 0.4 mm 4 mps 748 mmHg 87%
    18:00 +27°C° 0.4 mm 3 mps 748 mmHg 89%
    19:00 +27°C° 0.4 mm 3 mps 749 mmHg 92%
    20:00 +27°C° 0 mm 2 mps 749 mmHg 92%
    21:00 +26°C° 0 mm 2 mps 749 mmHg 93%
    22:00 +26°C° 0 mm 2 mps 750 mmHg 94%
    23:00 +26°C° 0 mm 1 mps 749 mmHg 94%

    8 June, Monday

    Time Temperature Precipitation Wind Pressure Humidity
    00:00 +26°C° 0 mm 1 mps 749 mmHg 94%
    01:00 +26°C° 0 mm 1 mps 749 mmHg 94%
    02:00 +26°C° 0 mm 1 mps 749 mmHg 94%
    03:00 +26°C° 0 mm 1 mps 749 mmHg 94%
    04:00 +26°C° 0 mm 1 mps 749 mmHg 94%
    05:00 +26°C° 0 mm 1 mps 749 mmHg 94%
    06:00 +24°C° 0 mm 0 mps 749 mmHg 93%
    07:00 +24°C° 0 mm 0 mps 749 mmHg 93%
    08:00 +27°C° 0 mm 1 mps 750 mmHg 89%
    09:00 +28°C° 0 mm 1 mps 750 mmHg 85%
    10:00 +29°C° 0 mm 1 mps 751 mmHg 81%
    11:00 +29°C° 0.9 mm 1 mps 751 mmHg 81%
    12:00 +29°C° 0.9 mm 1 mps 750 mmHg 81%
    13:00 +29°C° 0.9 mm 1 mps 750 mmHg 81%
    14:00 +29°C° 0.7 mm 2 mps 750 mmHg 82%
    15:00 +29°C° 0.7 mm 2 mps 749 mmHg 83%
    16:00 +28°C° 0.7 mm 3 mps 749 mmHg 85%
    17:00 +28°C° 0.3 mm 3 mps 749 mmHg 87%
    18:00 +27°C° 0.3 mm 3 mps 749 mmHg 89%
    19:00 +26°C° 0.3 mm 3 mps 749 mmHg 92%
    20:00 +26°C° 0 mm 3 mps 749 mmHg 92%
    21:00 +26°C° 0 mm 2 mps 749 mmHg 93%
    22:00 +26°C° 0 mm 2 mps 749 mmHg 94%
    23:00 +26°C° 0 mm 1 mps 749 mmHg 94%
    Show more